Simultaneous Nadir Overpasses (SNOs) Predictions

Prediction of SNOs between NOAA-19 and TERRA Satellite Orbit:

Table of predicted SNOs for the next 14.0 days since TLE Epoch: 4/21/2023
Index Date (NOAA-19) Time (NOAA-19) Lat,Lon (NOAA-19) SZA (NOAA-19 ) Date (TERRA) Time (TERRA) Lat,Lon (TERRA) SZA (TERRA ) Distance(km) Time Diff (sec)
1 04/22/2023 04:16:55 80.93, 150.24 70.48 04/22/2023 04:16:58 80.93, 150.21 70.48 0.64 3
2 04/24/2023 08:07:34 -80.93, -87.39 110.23 04/24/2023 08:07:25 -80.92, -87.55 110.26 3.02 9
3 04/26/2023 11:58:03 80.93, 34.97 69.08 04/26/2023 11:57:50 80.93, 34.86 69.06 1.90 13
4 04/28/2023 14:57:49 80.88, -13.79 68.02 04/28/2023 14:59:02 80.70, -13.02 67.97 23.78 73
5 04/28/2023 15:48:43 -80.93, 157.07 111.63 04/28/2023 15:48:16 -80.92, 157.10 111.64 1.33 27
6 04/30/2023 18:48:18 -80.93, 112.08 112.28 04/30/2023 18:49:18 -80.94, 112.10 112.25 1.48 60
7 04/30/2023 19:39:12 80.93, -80.56 67.72 04/30/2023 19:38:41 80.92, -80.49 67.71 1.44 31
8 05/02/2023 22:38:47 80.92,-125.69 67.06 05/02/2023 22:39:43 80.93,-125.67 67.09 0.63 56
9 05/02/2023 23:29:51 -80.93, 41.95 112.91 05/02/2023 23:29:05 -80.94, 42.11 112.91 2.99 46
10 05/05/2023 02:29:26 -80.93, -3.20 113.55 05/05/2023 02:30:07 -80.93, -3.23 113.53 0.97 41



Historial Predications of SNOs between NOAA-19 and TERRA
